RH
72 79 73 99 100 98 96 94 99 100 99 97 100 88 62 100 100 97 100 100 99 82 92 77 77 83 24 14 30 12 16 41 91 95 99 72 94 98 99 100 78 85 74 70 69 64 24 30 40 66 61 41 24 10
93 83 59 83 96 91 83 83 96 98 89 94 74 58 99 100 100 100 100 100 92 94 78 70 30 72 46 20 16 12 15 22 62 96 93 79 76 95 95 98 100 96 79 68 54 43 56 43 49 82 65 33 23 10
99 54 70 86 69 80 99 100 100 100 88 81 63 100 100 100 100 100 100 94 55 42 80 100 100 73 92 12 11 12 10 12 40 80 82 100 95 95 96 88 86 77 100 92 88 74 81 75 50 40 45 27 24 10
93 59 54 59 60 67 95 84 96 100 76 97 100 100 99 99 100 100 100 88 69 53 69 97 100 71 38 7 10 10 10 11 15 22 60 86 94 90 96 87 74 94 100 98 84 78 74 99 94 46 33 23 22 10
100 86 65 96 100 88 77 64 100 88 90 100 100 100 100 100 99 100 86 64 58 34 81 81 100 64 20 6 10 10 10 10 20 35 56 70 73 80 87 95 86 90 95 95 81 98 99 97 61 26 20 23 21 12
100 100 92 95 98 100 100 94 86 96 100 100 97 96 91 97 100 70 86 100 67 68 100 100 100 73 45 8 10 10 10 10 10 16 66 73 70 64 63 60 65 88 95 84 89 95 74 72 83 49 31 32 27 17
100 100 100 91 96 92 90 87 86 84 87 90 86 80 82 74 78 87 78 96 64 84 100 100 100 99 97 45 18 11 9 8 8 8 14 50 64 60 56 55 62 71 63 92 91 95 98 100 97 100 68 36 40 29
100 100 100 100 98 98 99 94 92 90 86 84 87 92 92 90 93 81 69 60 67 72 99 100 100 82 86 99 89 20 13 9 7 7 7 10 26 26 24 25 34 24 33 46 64 94 86 92 98 99 94 83 74 64
92 99 100 95 90 86 80 73 73 78 86 90 93 94 81 58 47 38 35 60 84 94 100 100 98 82 84 86 100 94 99 61 14 10 9 7 7 9 10 11 15 15 21 59 72 99 88 94 98 98 100 100 100 94
71 68 81 97 97 93 94 96 99 99 94 79 78 91 79 39 48 96 88 100 100 99 100 100 62 51 46 48 42 68 94 100 100 88 60 18 9 7 7 7 7 10 34 64 70 79 92 100 100 94 90 82 80 96
38 41 48 53 80 98 100 98 93 88 93 91 70 48 43 78 100 99 85 64 92 100 100 100 96 84 78 89 84 61 100 100 88 79 60 43 36 22 10 14 14 10 8 8 20 58 71 87 88 99 98 100 100 100
29 28 31 39 43 67 80 78 69 59 46 45 47 39 52 71 78 70 69 97 94 97 97 63 58 40 30 50 79 79 86 98 74 73 65 41 38 40 31 22 16 16 38 40 43 51 58 72 86 92 95 100 100 90
56 20 19 27 33 30 30 38 34 29 26 26 32 60 80 89 80 65 31 61 69 82 90 71 100 90 51 22 25 70 77 82 100 100 75 62 61 69 64 50 60 74 71 66 72 76 80 99 89 100 93 95 100 100
47 19 21 23 26 27 27 26 28 30 45 83 98 100 100 100 100 100 96 46 77 93 64 40 34 58 40 26 60 46 46 68 83 60 51 73 88 99 95 99 99 88 90 100 99 95 85 99 100 99 100 100 100 98
91 74 55 37 33 34 30 31 53 87 96 100 100 100 100 100 100 100 100 89 71 41 13 13 65 73 55 100 98 60 47 47 49 68 67 65 68 67 88 99 100 100 100 100 100 99 100 99 86 89 92 91 95 96
99 97 96 87 89 95 91 92 96 98 98 100 100 93 100 100 100 100 95 77 60 38 63 58 86 82 100 82 100 100 100 85 67 56 60 72 77 94 100 100 99 100 99 99 99 99 98 98 99 97 92 92 97 100
94 98 100 99 96 96 97 100 100 100 100 100 100 100 100 100 100 100 100 100 100 100 79 70 81 93 82 78 67 71 85 94 80 79 86 90 100 100 99 97 95 96 100 100 100 100 99 100 100 100 100 100 100 100
100 100 100 100 100 100 100 100 100 99 100 100 100 100 100 100 100 100 100 100 100 100 99 100 100 100 95 87 88 100 100 100 100 100 100 100 100 100 100 100 100 100 100 100 100 100 100 100 100 100 100 100 100 100
100 99 100 100 100 100 100 100 100 100 100 100 96 99 100 100 100 100 100 100 100 96 85 77 79 79 78 76 80 86 91 91 98 100 100 100 100 100 100 100 100 100 100 100 100 100 100 100 100 100 100 100 100 100
100 100 100 100 100 100 100 100 100 100 100 100 100 100 100 100 99 97 93 90 91 95 97 96 96 97 96 98 99 100 100 100 100 100 100 100 100 100 100 100 100 100 100 100 100 100 100 100 100 100 100 100 100 100
100 100 100 94 100 100 100 100 100 100 100 100 100 98 97 96 94 98 100 100 100 100 100 100 100 98 98 98 98 100 100 100 100 100 100 100 100 100 100 100 100 100 100 100 100 100 100 100 100 100 100 100 100 100
100 100 100 100 100 100 100 100 100 100 100 100 96 93 90 90 89 89 84 82 83 84 86 88 89 92 95 96 98 99 99 100 100 100 100 100 100 100 100 100 100 100 100 100 100 100 100 100 100 100 100 99 96 84
100 100 99 96 91 86 81 81 83 82 75 62 59 54 49 43 35 28 20 19 17 14 14 14 13 10 12 12 11 11 12 10 10 11 10 15 14 18 18 24 28 33 39 44 45 41 40 36 30 27 23 22 22 21
82 69 52 51 50 35 37 36 35 28 17 10 7 6 5 5 6 6 6 6 6 6 7 7 7 8 8 8 9 9 10 9 9 9 10 10 10 10 10 11 13 15 17 18 20 21 22 23 23 23 24 25 28 29
16 12 8 6 6 6 6 7 7 7 8 8 9 10 11 10 10 10 9 9 9 10 10 11 11 11 11 10 10 10 9 9 9 9 10 11 13 15 17 20 22 25 28 28 28 28 28 30 32 33 32 28 21 17
10 9 10 10 11 10 12 14 15 17 17 17 18 17 17 16 16 16 15 15 15 15 15 14 13 12 12 11 10 9 10 11 13 16 18 21 23 26 28 29 30 30 32 34 34 32 29 24 20 18 17 18 20 18
18 16 15 14 14 14 16 17 18 20 21 22 23 23 22 22 21 20 19 18 16 15 13 12 10 10 10 12 14 16 18 19 20 21 23 26 30 32 33 33 33 30 26 23 21 19 19 21 22 21 17 14 14 14
16 16 16 16 16 17 18 18 20 22 25 28 28 28 26 23 21 18 17 15 14 12 11 12 14 15 17 18 20 21 22 24 24 25 25 25 25 24 24 24 24 23 23 22 24 24 18 14 14 15 16 17 18 18
18 18 18 17 17 17 18 20 24 30 32 32 30 26 23 20 18 16 14 13 12 14 16 17 18 21 23 24 24 24 23 23 24 24 24 24 24 25 26 27 27 25 19 14 15 16 17 18 19 20 21 23 24 25
20 20 20 19 18 20 28 35 37 36 34 29 24 21 19 17 15 14 13 16 17 18 19 21 23 24 25 27 30 32 34 34 34 34 35 32 30 24 18 16 16 17 18 19 20 20 21 23 24 26 28 28 27 27
22 21 21 28 40 46 47 42 37 30 26 23 21 18 17 15 15 17 18 18 18 21 24 27 32 36 39 40 39 35 30 24 21 20 18 17 16 17 18 19 21 22 22 22 24 26 29 31 30 26 22 24 31 40
34 48 58 59 55 46 40 34 30 27 24 21 20 16 14 17 20 19 18 21 27 32 34 33 31 27 24 21 20 19 20 20 18 16 17 18 20 22 22 22 22 23 24 27 30 34 33 28 23 25 30 34 42 52
64 62 58 54 46 40 36 32 29 27 24 19 15 16 21 21 19 20 28 30 29 26 23 22 22 24 26 26 24 20 17 17 18 19 20 22 22 22 23 23 24 26 27 30 36 37 34 29 26 30 36 41 46 53
Wind_Speed
34 31 18 15 12 10 23 32 35 39 47 49 68 60 61 51 45 47 44 46 42 46 34 44 53 52 69 69 62 60 58 49 50 50 54 48 58 51 49 47 43 38 35 34 32 32 22 16 19 22 18 22 25 24
29 23 4 12 15 22 27 32 37 38 42 47 60 62 56 46 40 41 41 43 40 42 37 47 63 47 58 64 62 59 52 48 50 53 51 51 49 54 55 47 47 40 37 37 32 27 21 22 25 26 23 24 25 24
25 23 11 13 16 18 24 31 33 37 40 49 65 55 50 44 37 38 38 34 32 39 41 37 31 40 45 60 61 58 52 49 49 46 42 41 50 49 49 50 41 39 34 30 27 24 19 20 24 26 27 27 26 23
18 24 22 11 12 18 32 36 31 38 52 54 48 43 44 36 38 37 34 28 25 30 49 42 24 35 51 60 55 52 50 47 50 50 46 42 43 46 50 44 43 42 33 34 28 23 21 21 25 29 31 29 25 25
18 25 22 26 25 30 28 28 44 52 53 47 42 40 36 39 37 33 28 21 22 28 43 34 20 21 42 54 51 49 48 48 47 47 48 43 39 38 42 42 42 44 38 34 26 21 28 23 27 31 31 29 27 27
18 22 24 28 36 40 40 46 48 46 44 41 38 36 37 35 32 29 28 28 21 47 46 37 28 17 16 49 45 45 45 45 46 46 42 41 38 37 37 36 31 37 39 39 34 29 30 29 31 32 33 31 31 30
20 23 24 25 29 29 31 34 35 36 35 36 37 35 32 29 28 26 22 25 21 54 44 35 33 31 22 22 35 43 41 41 42 44 45 42 41 37 34 31 26 30 35 40 38 38 34 28 30 33 38 36 35 36
24 25 28 30 30 31 33 33 34 34 34 33 30 28 27 26 24 23 26 29 40 46 48 43 46 45 39 30 25 39 36 36 40 41 40 41 39 39 34 28 30 31 30 39 39 35 35 35 33 31 35 37 40 41
27 27 27 28 29 29 28 29 29 29 30 30 28 25 21 20 20 24 25 45 52 53 52 36 44 42 41 24 30 33 23 34 38 39 37 36 36 36 33 29 30 31 33 34 37 37 41 33 32 29 32 38 44 44
29 30 31 30 30 30 31 31 30 31 30 28 25 21 17 13 13 51 55 58 54 40 40 42 46 41 37 27 31 35 23 16 16 19 23 35 32 32 33 28 30 34 32 31 35 38 37 39 40 38 38 41 40 45
26 26 28 32 33 34 34 33 32 30 25 23 21 19 18 31 47 45 46 51 41 49 51 48 45 41 37 34 31 34 18 21 24 19 21 21 23 31 32 31 27 31 36 36 36 38 40 42 42 39 40 44 48 50
21 25 27 32 35 35 34 31 29 27 27 25 23 22 27 32 38 38 46 48 48 39 37 32 26 24 29 29 26 23 19 18 18 16 19 19 20 25 31 32 32 32 32 36 38 39 42 43 45 47 46 50 52 48
24 27 34 36 38 38 34 33 31 28 25 25 28 36 35 37 36 31 36 44 43 36 32 33 26 21 18 29 29 26 19 16 12 12 15 21 25 24 25 29 28 30 33 35 37 39 39 42 42 41 43 40 43 45
46 43 48 47 38 31 27 27 29 36 47 40 31 32 31 30 28 27 30 36 41 40 34 30 26 20 16 21 22 22 25 21 17 21 20 12 11 18 26 27 27 31 34 35 41 39 39 33 36 31 36 34 33 44
50 48 43 39 38 34 28 30 49 51 38 30 23 13 8 8 9 19 27 31 28 28 30 29 24 20 19 15 19 22 24 25 26 24 23 23 24 23 20 26 28 28 35 40 37 38 42 38 38 37 41 44 44 43
38 45 45 42 38 33 39 52 49 41 29 16 20 25 26 35 31 30 30 33 30 27 22 30 20 12 24 23 13 16 17 14 18 21 24 24 23 27 28 25 25 28 33 33 29 30 31 33 34 36 38 40 43 46
35 36 41 32 31 29 37 37 30 16 25 26 28 26 30 31 30 28 26 24 27 22 22 21 17 15 17 20 18 21 23 22 21 20 22 24 28 32 28 26 22 20 21 26 29 29 31 33 37 41 43 46 48 50
33 31 25 23 25 24 26 23 25 24 22 21 23 24 23 23 26 24 23 22 21 18 16 17 17 15 14 17 22 27 28 23 21 22 19 19 20 20 20 22 25 28 29 31 35 37 36 37 41 45 48 50 52 54
28 26 23 23 23 23 24 24 23 18 18 18 18 18 17 17 17 17 16 15 15 14 14 14 14 14 15 15 15 17 18 21 23 23 23 25 26 25 26 28 30 32 34 36 39 42 46 49 51 53 54 56 58 60
17 16 16 15 14 14 15 15 11 12 14 14 14 13 13 12 10 8 7 7 8 11 12 12 13 14 17 18 20 20 22 23 25 27 29 30 32 33 34 35 37 39 41 43 45 46 48 50 52 55 57 58 60 62
8 4 5 10 9 12 9 8 6 8 8 9 8 7 6 3 3 2 2 2 3 4 6 8 11 14 17 20 22 25 28 30 32 34 34 36 37 38 38 40 42 44 45 47 49 50 52 53 54 56 58 59 61 63
11 9 6 6 7 7 4 3 2 3 3 4 3 2 3 3 3 5 7 9 11 13 16 17 19 20 21 23 26 29 31 33 36 38 41 42 42 43 43 44 45 46 48 49 50 52 53 55 57 60 62 64 65 65
9 6 4 3 2 3 3 3 3 3 4 6 7 8 9 10 11 13 14 16 18 20 22 24 26 27 29 31 32 33 33 34 36 37 38 41 43 44 46 48 50 52 53 54 55 57 58 58 58 58 58 59 60 61
9 8 6 5 6 4 6 5 5 5 6 5 6 7 8 10 11 13 16 19 22 24 26 28 32 33 35 36 38 40 41 43 45 46 47 48 49 50 51 52 52 53 53 53 53 53 53 53 54 55 56 58 61 65
12 10 8 7 6 6 5 3 3 2 4 6 8 10 13 15 18 21 24 27 30 33 36 38 39 41 42 44 46 49 52 53 53 52 51 51 51 51 50 49 48 47 46 46 47 48 50 52 55 59 62 65 66 65
11 8 7 6 5 4 2 2 4 7 9 12 14 17 19 21 24 26 29 33 36 38 40 43 45 49 53 55 55 52 48 45 43 42 43 44 44 44 45 45 46 47 48 50 53 56 58 60 61 60 58 55 55 53
10 9 8 7 7 7 8 10 12 16 18 19 21 22 24 26 28 31 35 38 40 44 48 51 52 50 45 41 39 38 37 38 38 40 41 42 43 45 46 48 49 50 51 52 52 51 50 49 48 48 46 41 40 46
10 9 10 10 11 12 14 17 20 24 26 25 26 26 28 31 34 37 41 46 48 49 45 42 39 38 38 39 39 39 40 40 40 41 41 42 43 43 44 44 44 44 44 43 42 41 40 36 32 35 40 41 41 42
13 13 14 15 17 19 21 24 26 27 27 28 29 32 35 39 42 45 47 47 44 41 40 41 40 40 38 37 36 34 33 32 32 32 32 32 32 32 31 31 31 32 32 28 24 25 29 30 31 33 37 40 42 44
15 17 18 20 21 23 25 26 26 27 29 32 35 38 41 43 44 45 41 40 41 42 41 38 34 30 27 25 24 23 23 24 24 24 24 25 26 27 26 22 18 18 20 21 22 25 28 31 34 37 41 45 47 47
18 19 20 22 24 23 24 26 28 31 34 37 39 41 42 42 40 39 42 42 40 35 30 26 23 22 22 22 23 24 25 25 25 24 23 19 12 11 13 14 15 17 21 24 26 29 32 35 39 42 43 42 39 36
21 22 21 19 20 23 26 29 32 34 37 38 39 40 40 38 40 43 40 34 28 25 24 24 24 25 25 24 24 23 21 20 14 7 6 7 8 9 12 15 18 21 23 25 28 31 34 38 37 36 36 34 32 32
15 15 18 21 24 26 28 31 33 35 36 36 38 38 37 40 42 35 30 27 27 27 27 26 25 23 22 21 19 14 5 2 2 2 4 7 9 12 15 18 21 23 25 27 30 33 35 37 35 34 33 32 31 31
Wind_Direction
347 354 3 52 69 119 164 165 173 176 174 176 173 176 183 187 195 203 204 203 203 209 216 201 199 208 210 212 210 209 213 209 209 209 209 203 210 215 210 213 218 219 225 231 237 246 250 262 244 242 257 256 264 272
3 358 73 60 93 119 128 140 152 163 169 174 175 178 178 178 192 198 195 199 205 212 205 198 205 203 213 210 213 209 209 207 213 214 212 212 211 214 215 214 213 214 228 232 233 248 252 250 241 245 258 262 267 272
19 39 101 101 108 113 136 148 154 154 162 158 165 167 167 179 185 182 189 194 204 207 189 182 184 207 209 212 211 209 208 207 214 220 225 225 221 221 222 221 224 217 224 234 230 234 250 257 254 252 249 255 262 268
43 50 76 113 108 123 134 134 150 150 149 155 155 165 171 171 174 179 187 189 191 196 185 180 184 214 215 212 209 208 208 209 214 220 226 225 223 222 224 228 219 223 219 234 236 239 257 259 257 251 249 257 267 268
64 71 79 82 102 133 133 137 127 139 147 151 155 159 163 166 173 175 178 180 189 185 174 173 176 211 218 210 209 208 208 209 213 221 227 227 227 226 225 228 220 221 226 234 238 247 252 256 252 252 252 256 260 262
92 88 84 95 104 109 116 128 135 144 154 160 161 162 163 166 171 174 183 187 189 158 155 148 153 148 187 213 208 209 209 211 214 222 229 233 232 229 228 228 225 226 229 235 239 248 255 258 259 260 259 253 255 256
104 109 110 107 111 117 124 134 144 148 154 157 160 165 168 174 183 192 187 187 181 169 152 144 147 140 146 191 210 209 210 211 216 222 228 232 238 238 232 228 227 230 236 238 242 246 252 262 262 265 257 255 257 257
104 111 114 118 122 123 127 132 138 143 150 156 162 169 178 184 185 191 190 182 170 172 167 159 148 149 151 174 191 208 211 216 222 228 229 233 238 245 247 241 238 241 245 243 244 245 256 262 261 272 256 260 261 260
108 108 115 117 118 123 131 136 140 145 148 151 154 153 157 173 191 205 199 165 155 158 168 166 170 163 160 162 167 161 194 221 227 234 236 236 238 242 248 248 246 244 243 243 244 248 253 259 264 264 266 263 263 264
111 106 106 112 121 124 122 125 130 133 133 132 136 146 149 165 171 138 150 158 162 160 151 163 186 193 197 198 192 186 197 183 212 217 230 240 244 246 246 248 248 243 243 246 247 247 253 252 266 270 262 262 263 264
110 110 111 111 110 113 115 116 114 115 119 122 131 133 126 133 146 147 148 165 170 145 149 148 151 158 167 178 181 187 196 216 228 231 242 245 244 244 244 247 251 247 248 249 254 257 258 261 263 265 267 276 274 280
122 132 126 119 116 117 118 118 117 117 116 119 119 110 123 130 152 151 154 148 145 141 158 169 182 196 204 191 181 190 208 224 227 220 235 243 250 246 243 248 251 254 256 253 251 255 260 262 267 268 266 274 277 278
92 125 143 135 120 121 125 129 130 122 120 121 134 139 137 130 135 136 157 165 155 148 146 145 147 157 170 194 202 204 194 220 227 242 266 261 253 257 262 257 253 254 256 256 259 260 264 266 263 258 263 277 260 255
95 110 130 143 148 144 135 126 119 126 125 120 132 136 135 137 115 99 110 145 150 157 154 159 169 173 175 180 192 214 228 233 260 260 260 297 288 263 257 256 267 261 263 263 260 264 259 271 254 263 263 254 249 258
103 107 113 131 141 141 134 125 132 130 120 110 95 88 114 108 104 111 137 140 142 151 159 161 156 175 178 181 212 220 232 234 244 263 274 280 281 284 280 273 263 252 250 253 256 254 257 260 262 261 260 262 264 268
105 118 120 125 129 132 139 140 133 132 119 105 116 127 110 111 115 121 116 124 120 135 148 167 176 180 186 197 205 219 215 231 245 254 261 265 271 267 261 261 260 255 252 254 257 258 259 261 262 263 265 268 270 268
113 124 118 104 107 124 145 135 130 115 82 97 106 113 109 110 111 119 131 142 151 164 172 189 199 194 207 212 227 240 245 245 243 249 254 261 261 265 265 267 257 251 259 261 262 267 269 268 269 266 263 260 262 266
94 98 94 84 88 89 103 93 87 89 82 85 95 102 107 111 121 127 133 135 135 141 159 178 196 207 216 216 223 230 234 237 246 235 242 248 242 245 249 255 258 257 257 258 259 260 262 261 264 268 272 275 277 277
95 95 86 66 80 92 82 97 98 102 105 103 108 114 119 124 132 138 142 147 155 168 183 191 198 209 218 225 225 231 236 240 242 244 249 252 259 263 264 263 262 262 262 262 263 264 267 271 275 277 279 279 280 281
82 78 80 76 72 78 90 96 86 79 97 102 99 100 105 113 125 136 144 159 180 196 201 208 219 229 235 239 242 247 251 252 253 256 259 262 266 269 269 269 270 271 272 272 273 274 274 275 275 276 278 279 280 282
132 154 108 90 91 99 136 96 92 96 102 116 110 104 100 94 81 48 354 307 261 260 250 248 250 253 255 257 258 260 261 261 263 265 267 269 269 270 271 272 273 274 275 276 277 278 278 279 280 281 282 282 283 284
142 135 125 130 117 130 142 138 78 70 69 67 62 27 347 346 321 295 291 292 288 287 287 289 287 285 280 276 272 269 267 267 267 268 269 270 272 273 275 277 278 278 280 280 281 281 281 281 280 281 281 282 284 286
154 148 166 175 168 235 249 271 288 305 321 319 318 318 311 308 303 299 299 297 299 299 299 299 300 300 299 297 295 293 292 291 288 287 285 283 282 281 280 279 279 279 279 280 281 282 282 283 284 285 287 288 290 290
194 180 161 184 216 222 226 227 240 262 268 276 284 290 294 300 304 308 309 311 311 310 310 309 307 302 297 292 290 290 291 291 291 290 287 285 283 281 280 280 281 281 282 283 284 285 285 286 287 288 289 290 292 294
171 156 162 153 157 159 172 171 198 252 285 304 310 313 313 313 312 310 311 310 308 307 305 303 301 299 295 293 291 290 290 290 288 285 282 280 280 281 281 283 284 285 287 287 288 289 290 290 291 292 294 295 296 297
144 157 178 188 196 215 253 306 328 332 326 318 313 309 308 309 309 308 307 306 303 301 300 299 298 298 297 296 294 291 289 286 283 280 280 280 281 283 284 285 286 287 288 289 290 291 293 294 295 296 298 298 299 300
183 201 224 244 268 287 304 315 326 329 325 320 317 316 313 309 307 307 306 305 305 305 305 304 303 300 296 292 289 287 286 285 284 283 282 282 282 282 283 284 286 287 289 291 293 295 297 298 298 299 301 302 302 303
235 249 264 275 288 299 313 320 323 328 327 324 317 311 311 311 311 313 313 314 314 313 308 303 299 297 294 291 289 288 287 286 285 284 284 283 284 285 286 287 289 291 293 295 297 298 300 302 303 304 305 306 306 307
266 274 283 291 299 305 311 317 322 323 321 315 313 314 316 317 318 319 320 317 313 307 305 303 300 297 294 292 291 290 289 289 289 289 289 289 290 291 292 294 295 297 299 302 305 307 307 308 309 310 311 312 312 312
273 282 290 297 304 310 316 318 317 315 313 314 317 319 320 321 322 320 315 311 310 308 305 303 301 298 297 297 297 298 298 299 299 299 300 300 301 302 303 306 310 313 314 314 314 314 313 313 314 315 315 314 313 312
281 289 296 303 308 312 311 311 312 315 317 319 320 322 323 323 318 316 315 315 311 308 307 305 303 300 299 299 299 300 300 300 299 300 301 304 311 318 320 322 324 323 321 321 321 321 322 322 321 320 321 322 323 324
289 297 300 301 302 305 309 314 316 317 320 321 323 322 321 319 319 318 317 313 311 309 307 304 301 299 298 298 298 298 299 300 301 305 318 326 335 336 330 328 328 329 329 328 328 329 330 330 329 330 332 333 332 332
287 289 292 298 303 308 311 315 317 318 318 319 320 321 321 322 321 319 316 314 311 307 305 303 301 299 298 297 296 295 284 268 313 337 347 338 336 334 335 334 333 331 330 330 332 334 336 337 335 335 337 338 338 338